Regional Weather Roundup
Issued by NWS

Home | Current Version | Previous Version | Graphics & Text | Print | Product List | Glossary Off
Versions: 1 2 3 4 5 6 7 8 9 10 11 12 13 14 15 16 17 18 19 20 21 22 23 24 25 26 27 28 29 30 31 32 33 34 35 36 37 38 39 40 41 42 43 44 45 46 47 48 49 50

569
ASUS43 KMPX 140301
RWRMN
WEATHER ROUNDUP FOR MINNESOTA
NATIONAL WEATHER SERVICE TWIN CITIES/CHANHASSEN MN
900 PM CST SAT FEB 13 2016


NOTE: "FAIR" INDICATES FEW OR NO CLOUDS BELOW 12,000 FEET WITH NO
SIGNIFICANT WEATHER AND/OR OBSTRUCTIONS TO VISIBILITY. N/A MEANS
CURRENT SKY AND/OR WEATHER CONDITIONS ARE NOT AVAILABLE.

MNZ060>063-068>070-140400-
   Twin Cities Metro

CITY           SKY/WX    TMP DP  RH WIND       PRES   REMARKS
TWIN CITIES    CLOUDY     6  -7  54 SE7       30.37F WCI  -6
ST PAUL        CLOUDY     7  -6  55 SE8       30.40F WCI  -6
CRYSTAL        CLOUDY     9  -5  53 SE9       30.35F WCI  -4
BLAINE         MOCLDY     9  -6  52 SE7       30.35F WCI  -3
LAKEVILLE      CLOUDY     3  -6  66 SE8       30.36F WCI -10
EDEN PRAIRIE   CLOUDY     8  -6  52 SE9       30.35F WCI  -5
SOUTH ST PAUL  PTCLDY     7  -7  52 SE3       30.38F
LAKE ELMO      FAIR       5  -8  56 SE5       30.38F WCI  -4
$$
MNZ001>005-007-008-013>017-022>024-027-028-140400-
   Northwest Minnesota

CITY           SKY/WX    TMP DP  RH WIND       PRES   REMARKS
BEMIDJI        CLOUDY     3 -10  54 SE12      30.19F WCI -14
HALLOCK        CLOUDY    12   1  62 SE18      30.11F WCI  -5
ROSEAU         CLOUDY     7  -8  51 SE15      30.17F WCI -11
WARROAD        PTCLDY     3  -9  55 SE10      30.18F WCI -12
THIEF RVR FALL CLOUDY    10  -6  48 SE15      30.14F WCI  -6
CROOKSTON      CLOUDY    12   1  62 S18       30.15F WCI  -5
FOSSTON        CLOUDY     9  -8  47 SE10G18   30.14F WCI  -6
DETROIT LAKES  CLOUDY    10   0  61 SE16G23   30.16F WCI  -7
MOORHEAD       CLOUDY    12   1  62 SE18G25   30.14F WCI  -5
PARK RAPIDS    CLOUDY     7  -7  52 SE14      30.19F WCI -10
MAHNOMEN       CLOUDY     8  -4  57 SE15G22   30.14F WCI  -9
$$
MNZ006-009>011-018-025>026-140400-
   North Central Minnesota

CITY           SKY/WX    TMP DP  RH WIND       PRES   REMARKS
BAUDETTE       CLOUDY     0 -16  46 SE9       30.19F WCI -15
FLAG ISLAND    CLOUDY     0 -15  50 E8        30.20F WCI -15
INTL FALLS     CLOUDY   -11 -17  75 SE8       30.26F WCI -28
WASKISH        CLOUDY     1 -11  55 SE7       30.20F WCI -11
LONGVILLE      CLOUDY     0 -11  60 SE6       30.24F WCI -12
GRAND RAPIDS   CLOUDY     1 -17  42 SE9       30.25F WCI -14
ORR            CLOUDY     0 -17  46 CALM      30.26R
COOK           CLOUDY   -11 -18  70 CALM      30.29S
WALKER         FAIR       3 -11  52 SE7       30.22F WCI -10
$$
MNZ012-019>021-037-140400-
   Northeast Minnesota

CITY           SKY/WX    TMP DP  RH WIND       PRES   REMARKS
DULUTH         CLEAR      1 -14  49 S5        30.31S WCI  -9
ELY            CLOUDY   -13 -17  84 CALM      30.29F
HIBBING        CLOUDY    -9 -16  71 SE5       30.29S WCI -20
EVELETH        CLOUDY    -9 -17  70 CALM      30.31R
DULUTH HARBOR  CLOUDY     5  -9  51 S6        30.40S WCI  -6
TWO HARBORS    CLEAR     -6 -15  65 CALM      30.32S
SILVER BAY     CLEAR     -8 -11  84 CALM      30.33S
GRAND MARAIS     N/A     -3  -8  79 NW5       30.39F WCI -13
G MARAIS ARPRT CLEAR    -11 -18  70 CALM      30.28S
$$
MNZ029>031-032-039>041-046>048-054>057-064-140400-
   West Central Minnesota

CITY           SKY/WX    TMP DP  RH WIND       PRES   REMARKS
FERGUS FALLS   CLOUDY    10   0  61 SE18      30.20F WCI  -8
WHEATON        CLOUDY    10   5  79 SE24      30.17S WCI -10
MORRIS         CLOUDY    10   1  67 SE24G30   30.17F WCI -10
ALEXANDRIA     CLOUDY     9  -2  61 SE15      30.20F WCI  -8
ELBOW LAKE     CLOUDY    10   0  65 E16G24    30.17F WCI  -8
WADENA         CLOUDY     7  -4  61 SE13      30.20F WCI  -9
GLENWOOD       CLOUDY     9   0  66 SE15      30.21F WCI  -8
APPLETON       CLOUDY    12   1  62 SE18G25   30.19F WCI  -5
BENSON         CLOUDY    10   1  67 S16G24    30.20F WCI  -7
ORTONVILLE     CLOUDY    10   1  67 SE24      30.15F WCI -10
MADISON        CLOUDY    12   1  62 SE26G32   30.17F WCI  -8
WILLMAR        CLOUDY    10   3  72 SE20      30.25F WCI  -8
$$
MNZ033>034-036-042>043-049>051-058-059-140400-
   Central Minnesota

CITY           SKY/WX    TMP DP  RH WIND       PRES   REMARKS
ST CLOUD       CLOUDY     8  -6  52 SE13      30.30F WCI  -8
SAUK CENTRE    CLOUDY     8  -3  62 SE15      30.24F WCI -10
PAYNESVILLE    CLOUDY     9  -1  62 SE13      30.28F WCI  -6
AITKIN         CLOUDY     1 -15  46 SE5       30.27F WCI  -8
PINE RIVER     CLEAR      1  -9  60 SE7       30.27F WCI -11
BRAINERD       CLOUDY     2 -11  54 SE5       30.27F WCI  -8
STAPLES        CLOUDY     7  -8  51 SE8       30.23F WCI  -6
LONG PRAIRIE   CLOUDY     9  -4  56 SE12      30.24F WCI  -6
LITTLE FALLS   CLOUDY     9  -4  56 SE8       30.28F WCI  -4
LITCHFIELD     CLOUDY    10   0  61 SE10      30.30R WCI  -3
BUFFALO        CLOUDY     8  -6  52 SE8       30.34S WCI  -4
MAPLE LAKE     CLOUDY    10  -1  63 SE8       30.32F WCI  -3
$$
MNZ037-044-045-052-053-140400-
   East Central Minnesota

CITY           SKY/WX    TMP DP  RH WIND       PRES   REMARKS
PRINCETON      CLOUDY     9  -8  47 SE9       30.32F WCI  -5
MORA           CLOUDY     5  -8  56 SE3       30.35F
CAMBRIDGE      CLOUDY     9  -6  52 CALM      30.33F
RUSH CITY      CLOUDY     2 -11  54 SE3       30.36F
MOOSE LAKE     CLOUDY    -4 -13  65 CALM      30.32F
HINCKLEY       FAIR       3  -9  55 SE3       30.35F
CLOQUET        CLOUDY     1 -17  42 CALM      30.31F
MCGREGOR       CLOUDY     1  -9  60 SE5       30.30F WCI  -8
$$
MNZ071>073-080-081-089-090-097-098-140400-
   Southwest Minnesota

CITY           SKY/WX    TMP DP  RH WIND       PRES   REMARKS
MONTEVIDEO     CLOUDY    10   3  72 S20G25    30.22F WCI  -8
GRANITE FALLS  CLOUDY    13   5  71 SE17G25   30.25F WCI  -4
CANBY          FLURRIES  14   8  77 E18G24    30.17F WCI  -3
MARSHALL       FLURRIES  10   3  73 SE22G29   30.19F WCI -10
REDWOOD FALLS  CLOUDY    10   3  73 SE18      30.27F WCI  -8
OLIVIA         CLOUDY    12   3  67 SE16      30.26F WCI  -4
PIPESTONE      LGT SNOW  10   1  67 S20G26    30.11F WCI  -8
WINDOM         CLOUDY     9   1  72 SE14G22   30.23F WCI  -8
WORTHINGTON    CLOUDY     9   3  78 SE17      30.19F WCI -10
JACKSON        CLOUDY    10   3  72 SE15      30.24F WCI  -6
TRACY          FLURRIES  10   5  80 SE15      30.21F WCI  -6
SLAYTON        LGT SNOW   8   6  91 SE22      30.17F WCI -12
$$
MNZ065>067-074>077-082>085-091>093-140400-
   South Central Minnesota

CITY           SKY/WX    TMP DP  RH WIND       PRES   REMARKS
MANKATO        CLOUDY     7   0  72 SE17      30.32F WCI -12
NEW ULM        CLOUDY     9   0  66 SE14      30.29F WCI  -8
ST JAMES       CLOUDY    10   3  72 SE15      30.29F WCI  -6
FAIRMONT       CLOUDY     9   0  66 SE17      30.28F WCI -10
GLENCOE        CLOUDY    10   2  69 E15       30.31F WCI  -6
FARIBAULT      CLOUDY     7  -8  51 SE9       30.35S WCI  -7
OWATONNA       CLOUDY     7  -8  51 SE13      30.33F WCI  -9
WASECA         CLOUDY     9  -4  56 SE13      30.35S WCI  -7
ALBERT LEA     CLOUDY     7  -2  66 SE10      30.33S WCI  -8
$$
MNZ078>079-086>088-094>096-140400-
   Southeast Minnesota

CITY           SKY/WX    TMP DP  RH WIND       PRES   REMARKS
ROCHESTER      CLOUDY     1  -8  66 S8        30.35F WCI -13
RED WING       CLOUDY     3 -11  51 E3        30.40F
STANTON        CLOUDY     7  -6  55 SE5       30.35F WCI  -2
DODGE CENTER   CLOUDY     3  -6  66 SE12      30.32F WCI -13
WINONA         CLOUDY     3  -6  66 CALM      30.44F
AUSTIN         CLOUDY     5  -4  66 SE8       30.34S WCI  -8
PRESTON        CLOUDY     0 -10  62 S5        30.37S WCI -10
$$
ABBREVIATIONS USED IN REMARKS
   TC - TEMPERATURES IN CELSIUS
  WCI - WIND CHILL INDEX
   HX - HEAT INDEX
  VSB - VISIBILITY
$$




USA.gov is the U.S. government's official web portal to all federal, state and local government web resources and services.